Abbotsford, British Columbia

7:59 AM PST on December 14, 2017 (GMT -0800)
Abbotsford

Weather History for CYXX - February, 2013

Change the Weather History Date:

Tuesday, February 19, 2013

  Actual Average Record
Temperature  
Mean Temperature 40 °F -  
Max Temperature 49 °F 50 °F 53 °F (1998)
Min Temperature 30 °F 34 °F 24 °F (2005)
Degree Days  
Heating Degree Days 26    
Moisture  
Dew Point 32 °F    
Average Humidity 83    
Maximum Humidity 100    
Minimum Humidity 54    
Precipitation  
Precipitation 0.00 in 0.20 in - ()
Sea Level Pressure  
Sea Level Pressure 29.87 in    
Wind  
Wind Speed 4 mph ()    
Max Wind Speed 10 mph    
Max Gust Speed -    
Visibility 15.0 miles    
Events      
Averages and records for this station are not official NWS values.
T = Trace of Precipitation, MM = Missing Value Source: Averaged Metar Reports

Daily Weather History Graph

Daily Weather History Graph

Search for Another Location

Airport or City:

Trip Planner

Search our weather history database for the weather conditions in past years. The results will help you decide how hot, cold, wet, or windy it might be!

Date:

Astronomy

Feb. 19, 2013 Rise Set
Actual Time 7:10 AM PST 5:37 PM PST
Civil Twilight 6:37 AM PST 6:09 PM PST
Nautical Twilight 6:00 AM PST 6:46 PM PST
Astronomical Twilight 5:24 AM PST 7:23 PM PST
Moon 11:56 AM PST (2/19) 3:02 AM PST (2/19)
Length of Visible Light 11h 31m
Length of Day
10h 27m
Waxing Gibbous, 68% of the Moon is Illuminated
Feb 19
Waxing Gibbous
Feb 25
Full
Mar 4
Last Quarter
Mar 11
New
Mar 19
First Quarter

Hourly Weather History & Observations

Time (PST) Temp. Windchill Dew Point Humidity Pressure Visibility Wind Dir Wind Speed Gust Speed Precip Events Conditions
12:00 AM 35.6 °F 30.7 °F 33.8 °F 93% 29.80 in 15.0 mi North 5.8 mph - N/A   Mostly Cloudy
12:01 AM 35.6 °F 31.7 °F 33.8 °F 93% 29.80 in 15.0 mi North 4.6 mph - N/A   Mostly Cloudy
1:00 AM 35.6 °F 31.7 °F 32.0 °F 87% 29.80 in 15.0 mi NNE 4.6 mph - N/A   Mostly Cloudy
3:00 AM 33.8 °F 28.6 °F 32.0 °F 93% 29.79 in 15.0 mi North 5.8 mph - N/A   Partly Cloudy
4:00 AM 33 °F - 31 °F 91% 29.80 in 15 mi NNE 4.6 mph - -   Scattered Clouds
4:00 AM 32.0 °F 26.4 °F 32.0 °F 100% 29.79 in 15.0 mi North 5.8 mph - N/A   Partly Cloudy
5:00 AM 32.0 °F 26.4 °F 30.2 °F 93% 29.80 in 15.0 mi NNE 5.8 mph - N/A   Partly Cloudy
6:00 AM 32.0 °F 24.8 °F 30.2 °F 93% 29.81 in 30.0 mi NNE 8.1 mph - N/A   Partly Cloudy
7:00 AM 32.0 °F 25.6 °F 30.2 °F 93% 29.82 in 30.0 mi North 6.9 mph - N/A   Partly Cloudy
8:00 AM 33.8 °F 28.6 °F 30.2 °F 87% 29.84 in 30.0 mi North 5.8 mph - N/A   Scattered Clouds
9:00 AM 37.4 °F 32.8 °F 32.0 °F 81% 29.85 in 30.0 mi North 5.8 mph - N/A   Partly Cloudy
10:00 AM 42 °F - 32 °F 57% 29.86 in 28 mi North 5.8 mph - -   Scattered Clouds
10:00 AM 41.0 °F 36.4 °F 32.0 °F 70% 29.85 in 30.0 mi North 6.9 mph - N/A   Mostly Cloudy
11:00 AM 42.8 °F 37.0 °F 32.0 °F 66% 29.86 in 30.0 mi NE 10.4 mph - N/A   Mostly Cloudy
12:00 PM 44.6 °F 42.2 °F 32.0 °F 61% 29.86 in 30.0 mi NW 4.6 mph - N/A   Mostly Cloudy
1:00 PM 48.2 °F - 32.0 °F 54% 29.86 in 30.0 mi North 4.6 mph - N/A   Mostly Cloudy
2:00 PM 48.2 °F - 32.0 °F 54% 29.87 in 30.0 mi Calm Calm - N/A   Mostly Cloudy
3:00 PM 48.2 °F - 32.0 °F 54% 29.87 in 30.0 mi Variable 3.5 mph - N/A   Mostly Cloudy
5:00 PM 46.4 °F 42.9 °F 35.6 °F 66% 29.89 in 30.0 mi West 6.9 mph - N/A   Scattered Clouds
6:00 PM 41.0 °F 39.0 °F 35.6 °F 81% 29.90 in 30.0 mi SW 3.5 mph - N/A   Partly Cloudy
7:00 PM 35.6 °F 31.7 °F 33.8 °F 93% 29.92 in 15.0 mi South 4.6 mph - N/A   Partly Cloudy
8:00 PM 35.6 °F - 33.8 °F 93% 29.94 in 15.0 mi Calm Calm - N/A   Clear
8:34 PM 35.6 °F - 33.8 °F 93% 29.96 in 15.0 mi Calm Calm - N/A   Clear
9:00 PM 33.8 °F - 32.0 °F 93% 29.96 in 15.0 mi Calm Calm - N/A   Clear
10:00 PM 31 °F - 30 °F 94% 29.98 in 15 mi East 3.5 mph - -  
10:00 PM 30.2 °F - 30.2 °F 100% 29.98 in 15.0 mi East 2.3 mph - N/A   Clear
11:00 PM 32.0 °F - 32.0 °F 100% 30.00 in 15.0 mi Calm Calm - N/A   Clear